Regional Weather Roundup
Issued by NWS Newport/Morehead, NC

Current Version | Previous Version | Graphics & Text | Print | Product List | Glossary On
Versions: 1 2 3 4 5 6 7 8 9 10 11 12 13 14 15 16 17 18 19 20 21 22 23 24 25 26 27 28 29 30 31 32 33 34 35 36 37 38 39 40 41 42 43 44 45 46 47 48 49 50
000 ASUS42 KMHX 010313 RWRMHX WEATHER ROUNDUP FOR EASTERN NORTH CAROLINA NATIONAL WEATHER SERVICE NEWPORT/MOREHEAD CITY NC 1100 PM EDT FRI JUL 31 2015 NOTE: "FAIR" INDICATES FEW OR NO CLOUDS BELOW 12,000 FEET WITH NO SIGNIFICANT WEATHER AND/OR OBSTRUCTIONS TO VISIBILITY NCZ015>017-031-032-045>047-102-103-010400- NORTH COAST CITY SKY/WX TMP DP RH WIND PRES REMARKS EDENTON CLEAR 75 65 70 CALM 29.95R ELIZABETH CITY CLEAR 77 67 71 S6 29.95R KITTY HAWK CLEAR 77 65 68 CALM 29.94S MANTEO CLEAR 73 66 80 CALM 29.95S $$ NCZ045>047-081-094-103-104-010400- CENTRAL COAST CITY SKY/WX TMP DP RH WIND PRES REMARKS FRISCO MOCLDY 75 70 84 CALM 29.96R SWANQUARTER N/A 77 N/A N/A E3 29.91S $$ NCZ095-097-098-100-101-010400- SOUTHERN COAST CITY SKY/WX TMP DP RH WIND PRES REMARKS BEAUFORT CLOUDY 76 75 97 NE5 29.94R CEDAR ISLAND N/A 79 N/A N/A CALM 29.97F JACKSONVILLE MOCLDY 76 71 85 CALM 29.93R PINEY ISLAND MOCLDY N/A N/A N/A E3 29.94S WILMINGTON CLOUDY 77 75 93 S3 29.93S $$ NCZ011>013-027>030-043-044-078>080-089-090>093-098-010400- COASTAL PLAIN CITY SKY/WX TMP DP RH WIND PRES REMARKS AHOSKIE CLEAR 71 68 91 CALM 29.95S CLINTON CLEAR 78 73 85 CALM 29.95S ELIZABETHTOWN PTCLDY 77 71 81 CALM 29.94S GOLDSBORO CLEAR 82 70 67 SW5 29.92R GREENVILLE CLEAR 77 73 88 E5 29.96S HAVELOCK CLOUDY 76 73 91 SE5 29.95S KENANSVILLE CLEAR N/A N/A N/A CALM 29.94F KINSTON CLEAR 79 73 82 SW5 29.94R NEW BERN PTCLDY 77 72 84 S5 29.94S RICHLANDS PTCLDY 75 68 78 E5 29.93S ROCKY MOUNT CLEAR 77 64 64 NE5 29.95R WASHINGTON MOCLDY 78 70 76 NW6 29.96R WHITEVILLE MOCLDY 75 72 91 CALM 29.92F $$ AMZ130-135-150-152-154-156-158-170-250-252-270-ANZ085-086-088-633-658-670-010400- MARINE OBSERVATIONS STATION/POSITION TIME TEMP WIND PRES WAVE SWELL AIR SEA DIR/SP/G HT/PER HT/PER (UTC) (F) (DEG/KT/KT) (MB) (FT/S) (FT/S) CHESAPEAKE LIGHT 0300 81 190/ 2/ 3 1014.3 64 E VA BEACH 0250 81 81 290/ 8/ 10 1013.2 3/ 9 3/ 9 DUCK 0200 79 80 170/ 5/ 5 1012.9 2 E DUCK 0211 80 N/A 3/ 5 OREGON INLET 0200 80 86 120/ 3/ 3 1013.8 13E OREGON INLT 0300 82 N/A 4/ 8 HATTERAS CG 0200 80 84 90/ 4/ 5 1013.7 DIAMOND BUOY 0250 82 85 10/ 2/ 6 1014.5 4/ 8 3/ 8 CAPE LOOKOUT 0300 80 180/ 1/ 2 1013.8 BEAUFORT LAB 0200 79 83 260/ 1/ 5 1012.6 30 SE NEW RVR IN NOT AVBL 27 SE WRIGHTSVLE 0200 79 83 250/ 12/ 16 N/A 5 SE WRIGHTSVLE 0208 81 83 250/ 10/ 12 1013.4 225 S CAPE HAT 0250 82 81 240/ 17/ 19 1016.4 7/ 7 2/13 41 SE CHARLESTON 0250 84 84 210/ 14/ 16 1013.9 3/ 7 2/ 7 $$

USA.gov is the U.S. government's official web portal to all federal, state and local government web resources and services.